Tracking 18840 objects as of 17-November-2017
HD Live streaming from Space Station
objects crossing your sky now

COSMOS 1344

Track COSMOS 1344 now!
10-day predictions
COSMOS 1344 is classified as:


NORAD ID: 13110
Int'l Code: 1982-024A
Perigee: 970.4 km
Apogee: 1,014.5 km
Inclination: 82.9 °
Period: 104.8 minutes
Semi major axis: 7363 km
RCS: 2.1071 m2 (large)
Launch date: March 24, 1982
Source: Commonwealth of Independent States (former USSR) (CIS)
Launch site: PLESETSK MISSILE AND SPACE COMPLEX (PKMTR)
aabbcc
Your satellite tracking list
Your tracking list is empty




NASA's NSSDC Master Catalog

Two Line Element Set (TLE):
1 13110U 82024A   17321.34315809  .00000035  00000-0  21060-4 0  9990
2 13110  82.9264 222.8171 0029979  70.5930  59.4630 13.73975869787380
Source of the keplerian elements: AFSPC